This demonstration page uses our WeatherBlox Daily Observations layout. Learn more.

Hourly Observations for August 11, 2017

Temp ( °F °C ) Dew Point ( °F °C ) Humidity (%) Winds ( mph kmh ) Pressure ( in mb ) Visibility ( mi km ) Precip ( " mm )
12:15 am 00:15 Cloudy 72 22 66 19 83 83 S 5 7 30.18 1022 10 16.09344 0 0
12:35 am 00:35 Cloudy 72 22 66 19 83 83 SSW 3 6 30.18 1022 10 16.09344 0 0
12:55 am 00:55 Cloudy 70 21 68 20 94 94 Calm 30.18 1022 10 16.09344 0 0
1:15 am 01:15 Cloudy 70 21 68 20 94 94 Calm 30.18 1022 10 16.09344 0 0
1:35 am 01:35 Cloudy 70 21 68 20 94 94 Calm 30.18 1022 10 16.09344 0 0
1:55 am 01:55 Cloudy 70 21 68 20 94 94 Calm 30.18 1022 10 16.09344 0 0
2:15 am 02:15 Cloudy 72 22 66 19 83 83 S 3 6 30.18 1022 10 16.09344 0 0
2:35 am 02:35 Cloudy 70 21 66 19 88 88 S 5 7 30.15 1021 10 16.09344 0 0
2:55 am 02:55 Cloudy 72 22 64 18 78 78 S 7 11 30.15 1021 10 16.09344 0 0
3:15 am 03:15 Cloudy 72 22 64 18 78 78 S 5 7 30.15 1021 10 16.09344 0 0
3:35 am 03:35 Cloudy 72 22 64 18 78 78 S 3 6 30.15 1021 10 16.09344 0 0
3:55 am 03:55 Cloudy 70 21 64 18 83 83 Calm 30.15 1021 10 16.09344 0 0
4:15 am 04:15 Cloudy 72 22 64 18 78 78 SSE 5 7 30.15 1021 10 16.09344 0 0
4:35 am 04:35 Cloudy 70 21 64 18 83 83 Calm 30.15 1021 10 16.09344 0 0
4:55 am 04:55 Cloudy 70 21 64 18 83 83 SSE 3 6 30.15 1021 10 16.09344 0 0
5:15 am 05:15 Cloudy 70 21 64 18 83 83 SSE 5 7 30.15 1021 10 16.09344 0 0
5:35 am 05:35 Cloudy 70 21 64 18 83 83 SSE 5 7 30.15 1021 10 16.09344 0 0
5:55 am 05:55 Cloudy 70 21 64 18 83 83 SE 3 6 30.15 1021 10 16.09344 0 0
6:15 am 06:15 Cloudy 70 21 64 18 83 83 S 7 11 30.15 1021 10 16.09344 0 0
6:35 am 06:35 Partly Cloudy 70 21 64 18 83 83 S 3 6 30.15 1021 10 16.09344 0 0
6:55 am 06:55 Mostly Cloudy 68 20 64 18 88 88 S 5 7 30.15 1021 10 16.09344 0 0
7:15 am 07:15 Cloudy 70 21 64 18 83 83 Calm 30.15 1021 10 16.09344 0 0
7:35 am 07:35 Cloudy 70 21 66 19 88 88 Calm 30.15 1021 10 16.09344 0 0
7:55 am 07:55 Cloudy 70 21 66 19 88 88 Calm 30.15 1021 10 16.09344 0 0
8:15 am 08:15 Cloudy 70 21 66 19 88 88 S 3 6 30.15 1021 10 16.09344 0 0
8:35 am 08:35 Cloudy 72 22 68 20 88 88 S 3 6 30.15 1021 10 16.09344 0 0
8:55 am 08:55 Cloudy 72 22 68 20 88 88 S 6 9 30.15 1021 10 16.09344 0 0
9:15 am 09:15 Cloudy 72 22 68 20 88 88 S 5 7 30.15 1021 10 16.09344 0 0
9:35 am 09:35 Cloudy 73 23 70 21 89 89 S 5 7 30.15 1021 10 16.09344 0 0
9:55 am 09:55 Cloudy 73 23 70 21 89 89 SSE 6 9 30.15 1021 10 16.09344 0 0
10:15 am 10:15 Cloudy 73 23 70 21 89 89 S 6 9 30.12 1020 10 16.09344 0 0
10:35 am 10:35 Cloudy 75 24 70 21 83 83 SSW 7 11 30.15 1021 10 16.09344 0 0
10:55 am 10:55 Cloudy 73 23 70 21 89 89 S 6 9 30.15 1021 10 16.09344 0 0
11:15 am 11:15 Cloudy 73 23 70 21 89 89 S 6 9 30.15 1021 10 16.09344 0 0
11:35 am 11:35 Cloudy 77 25 70 21 79 79 S 8 13 30.15 1021 10 16.09344 0 0
11:55 am 11:55 Cloudy 77 25 70 21 79 79 S 6 9 30.15 1021 10 16.09344 0 0
12:15 pm 12:15 Mostly Cloudy 79 26 70 21 74 74 S 7 11 30.12 1020 10 16.09344 0 0
12:30 pm 12:30 Cloudy 79 26 70 21 74 74 S 9 15 30.12 1020 10 16.09344 0 0
12:55 pm 12:55 Cloudy 79 26 72 22 79 79 S 12 19 30.12 1020 10 16.09344 0 0
1:15 pm 13:15 Cloudy 79 26 72 22 79 79 S 10 17 30.12 1020 7 11.265408 0 0
1:35 pm 13:35 Cloudy 81 27 72 22 74 74 S 10 17 30.12 1020 7 11.265408 0 0
1:55 pm 13:55 Mostly Cloudy 82 28 70 21 66 66 S 14 22 30.09 1019 10 16.09344 0 0
2:15 pm 14:15 Partly Cloudy 82 28 70 21 66 66 S 12 19 30.09 1019 10 16.09344 0 0
2:35 pm 14:35 Partly Cloudy 82 28 68 20 62 62 S 10 17 30.06 1018 10 16.09344 0 0
2:55 pm 14:55 Sunny 84 29 68 20 58 58 S 9 15 30.06 1018 10 16.09344 0 0
3:15 pm 15:15 Mostly Cloudy 84 29 70 21 62 62 S 12 19 30.06 1018 10 16.09344 0 0
3:35 pm 15:35 Mostly Cloudy 82 28 70 21 66 66 S 9 15 30.06 1018 10 16.09344 0 0
3:55 pm 15:55 Partly Cloudy 82 28 72 22 70 70 S 10 17 30.03 1017 10 16.09344 0 0
4:15 pm 16:15 Mostly Cloudy 82 28 72 22 70 70 SSE 12 19 30.03 1017 10 16.09344 0 0
4:35 pm 16:35 Cloudy 82 28 72 22 70 70 S 8 13 30.06 1018 10 16.09344 0 0
4:55 pm 16:55 Mostly Cloudy 81 27 72 22 74 74 SSE 12 19 30.03 1017 10 16.09344 0 0
5:15 pm 17:15 Partly Cloudy 81 27 72 22 74 74 SE 9 15 30.03 1017 10 16.09344 0 0
5:35 pm 17:35 Mostly Cloudy with Rain 81 27 73 23 79 79 S 6 9 30.03 1017 10 16.09344 0 0
5:55 pm 17:55 Cloudy with Light Rain 79 26 73 23 84 84 SSE 6 9 30.03 1017 10 16.09344 0.02 0.508
6:15 pm 18:15 Partly Cloudy 79 26 73 23 84 84 SSE 6 9 30.03 1017 10 16.09344 0 0
6:35 pm 18:35 Mostly Cloudy with Nearby Thunderstorms 77 25 73 23 89 89 SSE 7 11 30 1016 7 11.265408 0.01 0.254
6:55 pm 18:55 Mostly Cloudy with Nearby Thunderstorms 77 25 73 23 89 89 Calm 30 1016 5 8.04672 0.05 1.27
7:15 pm 19:15 Cloudy 75 24 75 24 100 100 SSW 3 6 30.03 1017 7 11.265408 0.02 0.508
7:35 pm 19:35 Cloudy with Rain 72 22 72 22 100 100 WSW 8 13 30.03 1017 7 11.265408 0.03 0.762
7:55 pm 19:55 Cloudy with Thunderstorms 72 22 72 22 100 100 S 7 11 30.03 1017 10 16.09344 0.07 1.778
8:15 pm 20:15 Cloudy with Thunderstorms 70 21 70 21 100 100 S 9 15 30.03 1017 10 16.09344 0.02 0.508
8:35 pm 20:35 Cloudy with Thunderstorms 70 21 70 21 100 100 S 7 11 30.03 1017 7 11.265408 0.05 1.27
8:55 pm 20:55 Cloudy with Heavy Rain 70 21 70 21 100 100 SSW 8 13 30.03 1017 7 11.265408 0.1 2.54
9:15 pm 21:15 Cloudy with Heavy Rain 68 20 68 20 100 100 SSW 6 9 30.03 1017 4 6.437376 0.08 2.032
9:35 pm 21:35 Cloudy with Heavy Rain 68 20 68 20 100 100 SSE 5 7 30.03 1017 3 4.828032 0.28 7.112
9:55 pm 21:55 Cloudy with Light Rain 68 20 68 20 100 100 NW 5 7 30.06 1018 5 8.04672 0.35 8.89
10:15 pm 22:15 Cloudy 68 20 68 20 100 100 Calm 30.03 1017 1.25 2.01168 0.29 7.366
10:35 pm 22:35 Cloudy with Rain 68 20 68 20 100 100 SE 3 6 30.03 1017 3 4.828032 0.47 11.938
10:55 pm 22:55 Cloudy with Light Rain 68 20 68 20 100 100 E 5 7 30.03 1017 10 16.09344 0.47 11.938
11:15 pm 23:15 Cloudy with Light Rain 70 21 70 21 100 100 ESE 5 7 30 1016 7 11.265408 0.01 0.254
11:35 pm 23:35 Cloudy 70 21 70 21 100 100 Calm 30 1016 10 16.09344 0.01 0.254
11:55 pm 23:55 Mostly Cloudy 70 21 70 21 100 100 Calm 30 1016 10 16.09344 0.01 0.254

Powered by AerisWeather